Date,TemperatureHighF,TemperatureAvgF,TemperatureLowF,DewpointHighF,DewpointAvgF,DewpointLowF,HumidityHigh,HumidityAvg,HumidityLow,PressureMaxIn,PressureMinIn,WindSpeedMaxMPH,WindSpeedAvgMPH,GustSpeedMaxMPH,PrecipitationSumIn
2013-1-1,22.5,7.6,-4.6,11.4,-0.3,-13.7,80,70,59,30.68,30.27,7,0,7,0.01
2013-1-2,24.1,13.4,1.4,5.2,-0.1,-7.3,72,55,38,30.79,30.47,8,1,8,0.00
2013-1-3,21.8,7.9,-6.2,2.9,-2.5,-11.8,77,63,43,30.89,30.58,6,0,6,0.00
2013-1-4,36.4,19.5,-2.7,13.3,3.1,-11.2,66,49,35,30.83,30.27,6,0,6,0.02
2013-1-5,39.2,22.8,2.2,16.7,6.5,-7.6,67,50,34,30.73,30.31,8,0,8,0.01
2013-1-6,39.9,26.1,-1.7,14.4,6.2,-9.8,70,43,32,30.80,30.09,12,1,12,0.00
2013-1-7,36.7,23.4,11.6,16.4,8.7,-0.1,68,54,36,30.28,30.01,10,1,10,0.00
2013-1-8,45.0,28.6,11.2,19.0,11.4,-1.1,72,50,31,30.53,30.08,8,0,8,0.00
2013-1-9,42.2,26.0,10.4,20.1,11.1,1.5,70,54,38,30.74,30.35,8,0,8,0.00
2013-1-10,50.9,34.9,7.9,17.0,10.0,-1.7,65,38,16,30.32,29.69,24,3,24,0.00
2013-1-11,27.2,17.6,8.9,12.7,1.5,-7.7,78,49,31,30.03,29.36,52,7,52,0.00
2013-1-12,17.8,8.3,-3.2,-4.6,-9.1,-14.3,67,45,28,30.41,30.07,8,1,8,0.00
2013-1-13,17.0,11.0,-3.7,1.8,-3.5,-11.0,78,53,33,30.52,30.25,14,1,14,0.00
2013-1-14,13.5,4.0,-7.6,1.4,-3.8,-13.3,79,70,57,30.54,30.27,6,0,7,0.00
2013-1-15,26.9,14.5,-14.9,10.0,0.7,-21.0,77,55,43,30.80,30.47,14,1,14,0.00
2013-1-16,39.9,26.2,8.1,19.8,12.5,0.3,76,57,40,30.62,30.27,8,0,8,0.01
2013-1-17,39.7,26.6,9.6,21.8,14.7,3.3,78,62,45,30.84,30.45,10,1,10,0.00
2013-1-18,42.1,27.8,3.8,19.5,12.1,-3.2,75,53,37,30.66,30.27,7,1,7,0.00
2013-1-19,45.2,31.1,6.9,18.6,10.5,-2.9,65,44,25,30.73,30.34,9,1,9,0.00
2013-1-20,48.3,32.8,11.3,18.6,8.7,-3.3,68,39,16,30.60,30.15,9,1,9,0.00
2013-1-21,45.5,32.0,7.0,21.4,13.6,-0.4,71,48,27,30.56,30.23,9,1,10,0.00
2013-1-22,53.4,36.1,16.9,18.6,11.6,2.7,66,38,17,30.52,30.21,14,1,14,0.00
2013-1-23,54.4,38.5,13.9,25.1,13.3,-1.6,53,37,15,30.68,30.20,10,1,10,0.00
2013-1-24,49.6,38.5,31.2,18.7,12.4,6.5,39,34,29,30.23,30.06,20,2,20,0.00
2013-1-25,51.2,40.3,29.4,31.7,27.6,23.1,79,62,43,30.20,29.97,20,1,20,0.00
2013-1-26,47.4,38.5,27.6,34.9,29.7,21.4,88,71,53,30.10,29.60,15,1,15,0.06
2013-1-27,46.9,40.7,36.9,29.4,24.9,19.3,65,53,45,29.69,29.58,19,3,20,0.01
2013-1-28,42.4,36.6,29.9,30.8,23.2,10.1,83,59,40,29.64,29.42,27,6,27,0.00
2013-1-29,24.8,20.9,16.8,14.8,6.6,-2.8,78,55,31,30.01,29.62,25,5,25,0.00
2013-1-30,34.9,25.6,5.6,10.0,6.0,-4.6,62,44,31,30.23,29.97,34,5,34,0.01
2013-1-31,44.0,35.7,16.9,15.9,11.4,6.4,63,37,28,30.20,30.05,23,4,23,0.00
2013-2-1,43.7,36.4,18.4,15.7,11.8,9.1,68,37,25,30.27,30.03,31,7,31,0.00
2013-2-2,51.0,37.0,13.8,16.2,11.5,5.8,70,38,18,30.55,30.28,5,0,5,0.00
2013-2-3,48.7,39.1,18.9,18.9,14.8,5.0,64,38,17,30.33,29.92,26,3,26,0.00
2013-2-4,49.4,37.1,12.4,13.6,9.6,4.8,73,34,20,30.17,29.88,16,3,16,0.00
2013-2-5,56.4,38.6,15.8,17.7,14.0,7.4,69,40,19,30.19,29.88,11,1,11,0.00
2013-2-7,45.7,33.0,17.9,24.8,17.3,4.7,86,57,19,30.26,30.03,10,1,10,0.01
2013-2-8,45.2,40.3,19.0,20.5,17.8,13.3,78,40,31,30.16,29.56,45,9,45,0.00
2013-2-10,33.2,27.4,19.1,15.2,5.8,-2.6,75,42,23,30.00,29.75,23,3,23,0.00
2013-2-11,18.1,13.4,-0.7,12.7,8.4,-8.8,83,80,76,30.43,30.11,7,0,7,0.00
2013-2-12,27.6,15.0,-4.8,10.2,3.2,-10.6,79,60,42,30.57,30.34,9,1,9,0.02
2013-2-13,40.2,27.3,0.2,19.9,11.9,-7.3,73,53,39,30.56,30.07,15,2,15,0.04
2013-2-14,39.7,25.0,6.1,19.1,12.6,-1.7,79,61,35,30.49,30.17,18,1,18,0.02
2013-2-15,35.9,25.6,3.8,12.2,7.4,-1.5,79,47,29,30.62,30.31,24,4,24,0.01
2013-2-16,47.0,36.3,7.9,16.1,11.8,0.5,73,38,24,30.59,30.18,16,3,16,0.00
2013-2-17,47.2,39.0,22.6,9.2,6.0,1.5,46,26,18,30.03,29.60,32,9,32,0.00
2013-2-18,36.4,28.8,18.4,18.5,3.9,-3.1,83,37,22,30.24,29.91,23,4,25,0.01
2013-2-19,46.1,33.2,13.5,14.1,9.2,-0.3,69,40,16,30.26,29.78,19,2,19,0.00
2013-2-20,38.7,27.8,20.2,26.3,21.8,13.6,87,79,54,29.81,29.50,14,1,14,0.00
2013-2-21,31.0,23.5,18.4,20.7,17.5,14.1,87,78,64,29.99,29.54,9,1,9,0.14
2013-2-22,30.9,21.6,9.5,19.8,14.5,5.4,85,75,56,30.17,29.93,9,1,9,0.05
2013-2-23,43.4,28.8,6.3,19.0,13.5,0.9,79,54,33,30.12,29.69,16,2,16,0.04
2013-2-24,28.2,23.0,18.3,19.2,15.6,10.1,84,73,62,30.15,29.73,20,4,21,0.05
2013-2-25,34.7,20.9,0.9,12.3,6.4,-4.1,81,55,36,30.38,30.00,10,1,10,0.00
2013-2-26,28.3,19.6,8.2,20.1,12.6,-0.4,85,74,49,30.31,29.91,15,2,15,0.00
2013-2-27,28.8,10.3,-8.4,12.2,1.1,-13.9,82,68,43,30.74,30.31,7,0,7,0.09
2013-2-28,37.0,24.5,-5.5,14.8,7.5,-12.2,74,49,33,30.86,30.39,11,1,11,0.02
2013-3-1,44.7,35.4,14.5,23.2,18.3,6.2,69,50,38,30.50,30.25,29,6,29,0.01
2013-3-2,48.4,38.4,15.1,28.2,22.7,8.9,78,54,39,30.54,30.19,11,1,11,0.00
2013-3-3,53.7,47.0,35.0,25.9,21.1,15.3,52,36,26,29.91,29.57,27,6,27,0.00
2013-3-4,47.2,34.1,19.0,31.9,21.1,14.1,86,62,31,30.25,29.56,31,6,31,0.00
2013-3-5,54.5,37.2,12.2,17.5,10.9,4.7,81,39,15,30.50,30.12,9,1,9,0.00
2013-3-6,56.4,48.1,34.4,22.0,18.2,9.7,46,31,19,30.06,29.65,30,4,30,0.00
2013-3-7,58.6,48.2,35.0,21.3,14.8,9.2,57,28,16,29.86,29.62,27,4,27,0.00
2013-3-8,51.4,44.2,34.4,29.2,22.9,18.3,81,44,28,29.83,29.50,24,4,29,0.00
2013-3-9,35.2,27.8,23.4,26.5,21.8,16.9,88,78,52,30.09,29.53,22,4,22,0.04
2013-3-10,42.4,29.9,10.9,18.5,14.3,6.5,82,54,34,30.36,30.07,18,3,19,0.02
2013-3-11,48.7,37.3,15.0,23.5,17.5,8.2,78,46,30,30.29,29.89,25,3,25,0.02
2013-3-12,51.9,37.7,21.5,32.2,25.9,16.7,88,65,33,30.28,29.97,12,2,12,0.00
2013-3-13,57.4,46.8,26.3,27.7,24.0,20.1,78,43,27,30.34,30.10,14,2,14,0.00
2013-3-14,63.4,50.7,29.7,28.7,22.3,17.8,77,36,19,30.38,30.04,25,2,25,0.00
2013-3-15,63.9,52.7,29.0,28.9,22.1,17.5,76,34,18,30.11,29.69,25,3,25,0.00
2013-3-16,48.6,40.6,34.0,33.2,29.5,25.2,86,65,44,29.90,29.73,15,2,15,0.00
2013-3-17,51.6,43.6,33.5,31.6,22.5,15.3,82,45,27,29.71,29.44,40,11,42,0.02
2013-3-18,45.0,39.6,32.4,11.5,8.7,5.3,39,28,22,29.92,29.76,33,8,33,0.00
2013-3-19,47.7,40.9,30.5,13.0,9.5,4.8,44,28,19,30.20,29.88,23,4,23,0.00
2013-3-20,50.4,43.2,15.6,24.3,16.5,9.1,76,36,22,30.34,29.61,27,4,27,0.00
2013-3-21,49.9,41.6,28.8,29.7,19.1,11.1,66,41,28,29.72,29.38,31,8,31,0.00
2013-3-22,46.1,38.2,25.6,26.4,16.5,7.8,87,44,24,29.82,29.52,29,4,30,0.00
2013-3-23,22.1,16.0,10.0,17.1,11.1,5.1,84,80,76,30.38,29.71,18,2,18,0.03
2013-3-24,29.2,20.1,-3.8,13.3,7.4,-9.2,80,60,33,30.55,30.20,24,4,24,0.07
2013-3-25,34.4,24.4,4.5,15.0,7.9,-0.8,83,52,29,30.52,30.36,13,2,13,0.01
2013-3-26,52.3,44.3,15.6,24.0,19.5,9.1,77,39,26,30.40,29.85,20,3,20,0.00
2013-3-27,55.9,50.0,42.8,28.6,22.1,15.9,56,35,24,29.93,29.77,19,2,19,0.00
2013-3-28,54.9,40.5,25.6,28.2,24.7,20.7,83,57,28,30.11,29.97,11,1,11,0.00
2013-3-29,59.8,49.9,28.3,27.2,23.3,17.6,78,38,20,30.15,29.92,24,5,24,0.00
2013-3-30,58.6,50.6,27.1,28.9,24.0,19.9,77,37,24,30.13,29.87,24,5,29,0.00
2013-3-31,61.6,51.7,38.0,32.6,19.1,8.9,77,31,13,30.04,29.77,28,3,28,0.00
2013-4-1,58.1,45.7,30.6,29.3,25.7,21.5,77,47,28,30.01,29.74,18,2,18,0.00
2013-4-2,46.7,36.8,29.3,28.9,27.5,25.4,88,70,49,30.07,29.87,16,2,16,0.00
2013-4-3,52.4,41.0,28.8,33.1,28.7,23.3,90,64,37,30.22,29.95,22,2,22,0.16
2013-4-4,62.5,48.8,24.0,29.4,23.2,19.1,83,42,20,30.26,29.92,13,1,13,0.00
2013-4-5,63.7,54.2,40.1,32.3,24.1,13.1,50,33,18,29.92,29.55,33,7,33,0.01
2013-4-6,59.7,53.7,39.4,31.3,22.4,11.2,63,31,16,29.79,29.57,21,3,21,0.00
2013-4-7,57.7,50.9,39.9,24.3,22.5,20.0,48,33,23,29.66,29.50,29,6,29,0.00
2013-4-8,59.9,54.5,36.2,27.4,22.8,17.1,56,29,22,29.51,29.09,46,8,46,0.00
2013-4-9,23.7,19.4,13.2,18.7,13.9,8.8,83,79,70,30.21,29.62,23,4,23,0.00
2013-4-10,23.2,13.3,7.9,14.4,7.4,3.3,81,77,67,30.32,30.17,7,1,7,0.00
2013-4-12,52.3,44.7,23.8,28.7,23.5,19.0,83,45,29,29.92,29.74,24,4,24,0.00
2013-4-13,59.3,51.9,26.1,28.6,20.3,14.4,88,30,22,29.83,29.17,48,9,48,0.00
2013-4-14,54.9,46.3,35.1,33.6,22.2,13.3,88,42,25,29.50,29.32,30,7,30,0.06
2013-4-15,58.4,51.2,30.3,28.1,24.8,20.3,66,37,27,29.59,29.36,28,6,30,0.00
2013-4-16,45.2,36.3,24.9,27.1,23.0,18.2,79,59,48,29.84,29.63,24,4,24,0.00
2013-4-17,33.2,29.0,26.9,28.4,24.8,22.7,87,84,79,29.84,29.71,14,2,15,0.02
2013-5-2,27.1,26.4,25.6,18.3,17.8,17.0,70,70,69,30.74,30.72,8,3,8,0.00
2013-5-6,43.4,43.3,43.2,37.5,37.4,37.3,80,80,79,29.79,29.79,2,0,2,0.05
2013-11-6,46.4,38.8,24.4,19.5,17.0,14.8,71,42,30,30.62,30.34,20,2,20,0.00
2013-11-8,54.3,54.2,54.0,18.3,18.2,18.0,24,24,24,29.73,29.73,8,5,20,0.02